COSMOS 1275 DEB

Satellite information

Favourite Embed

Satellite Type and Status

DEBRISIN ORBIT

Key statistics

Satellite COSMOS 1275 DEB at a glance.

Uptime

16103

Days in orbit

Revolutions

≈ 13.8

Per day

Orbit

LEO

Low Earth Orbit

Inclination

82.8

Latest

Satellite identification and parameters

Extended collection of information and parameters for COSMOS 1275 DEB.

Object identification

Identified? True

Debris? True

Object name: COSMOS 1275 DEB

International designator: 1981-053NY

Object number (NORAD): 39962

Object ID (CCSDS): 39962

Country: COMMONWEALTH OF INDEPENDENT STATES (CIS)

Current information (Y/N): Y

RCS size: SMALL

Orbital parameters

Period: 104.347 minutes

Inclination: 82.8184 deg

SMA: 7341.995 km

Apoapsis: 1016.032 km

Periapsis: 911.688 km

RAAN: 322.9389 deg

Eccentricy: 0.007106

Argument of periapsis: 322.0022 deg

Mean anomaly: 37.6135 deg

Mean motion: 13.80008177 rev/day

Mean motion (dot): 0.00000418 rev/day2

B* drag term: 0.00038163 1/REarth

Two-line elements (TLE)

Creation date: July 1, 2025, 6:11 p.m.

Reference frame: TEME

Reference center: EARTH

Epoch: July 1, 2025, 2:37 a.m. UTC

TLE line 0: 0 COSMOS 1275 DEB

TLE line 1: 1 39962U 81053NY 25182.10935723 .00000418 00000-0 38163-3 0 9991

TLE line 2: 2 39962 82.8184 322.9389 0071060 322.0022 37.6135 13.80008177556784

Live tracking on map

Real-time ground track for satellite COSMOS 1275 DEB.

In-orbit conjunctions

A list of the most updated potential collisions computed for object COSMOS 1275 DEB.

Target Orbit TCA Probability of collision Miss distance Type
COSMOS 2135 LEO 2024-11-30 20:21:23 0.000339206 149.0 (m) PAYLOAD
FENGYUN 1C DEB SSO 2024-11-12 02:17:44 0.0001062367 941.0 (m) DEBRIS
CZ-6A DEB LEO 2024-10-05 08:27:20 0.0002649192 367.0 (m) DEBRIS

Associated space launch

Navigation satellite providing location information for the Tsiklon-B navigation system

COSMOS 1275 DEB was lifted into orbit during the mission ‘Kosmos-3M | Parus 27’, on board a Kosmos-3M space rocket.

The launch took place on June 4, 1981, 3:41 p.m. from 132/2.

For more information about the launch, click the button.

Launch to space Kosmos-3M | Parus 27
Kosmos-3M | Parus 27

Agency: N/A

Status: Launch Successful

Launch date: June 4, 1981, 3:41 p.m. UTC

Rocket: Kosmos-3M

Launch pad: 132/2

Location: Plesetsk Cosmodrome, Russian Federation

...

Latest news about this satellite

There are no fresh news available about this satellite. Check back as we update our databases every day.


Newsletter sign-up

Weekly statistics, charts and insights to help you stay on top of the space industry.